Location: Eskerod
(56.2938°N, 10.3486°E)
Time: 00:15:01
(UTC+00:00)

Daily predictions for brighter satellites

Satellite Brightness Start Highest point End
(mag) Time Altitude Azimuth Time Altitude Azimuth Time Altitude Azimuth
Cosmos 1943 Rocket 3.6 00:05:33 29° NW 00:05:57 30° NNW 00:10:49 10° NNE
SL-8 Rocket 4.3 00:04:12 10° N 00:09:32 63° NNE 00:09:32 63° NNE
ATLAS 2AS CENTAUR R/B 3.6 00:03:48 10° WNW 00:11:28 52° N 00:18:39 10° E
ATLAS 5 CENTAUR R/B 3.7 00:16:04 25° ENE 00:16:04 25° ENE 00:18:14 10° NE
Cosmos 2366 rocket 4.2 00:21:49 10° N 00:27:25 70° N 00:27:25 70° N
CZ-4C R/B 3.5 00:30:27 27° NW 00:33:30 46° N 00:40:28 10° ENE
Cosmos 2218 Rocket 4.2 00:27:56 10° NNW 00:33:36 71° NNW 00:33:36 71° NNW
ADEOS II 3.9 00:32:49 10° NE 00:36:50 22° E 00:37:24 21° E
SJ 16-02 3.2 00:35:38 10° NNW 00:39:20 28° NE 00:39:20 28° NE
Cosmos 2297 Rocket 4.1 00:36:33 10° NW 00:38:13 19° NW 00:38:13 19° NW
USA 234 3.1 00:36:46 10° E 00:43:20 87° N 00:43:28 85° NW
Cosmos 2221 4.4 00:45:57 27° N 00:45:57 27° N 00:48:00 10° N
Cosmos 1241 Rocket 4.5 00:52:41 80° NE 00:52:41 80° NE 00:58:48 10° NE
Cosmos 2369 Rocket 3.8 00:52:18 23° NW 00:53:42 26° NNW 00:58:26 10° NNE
Cosmos 1697 Rocket 3.4 00:59:13 43° E 00:59:13 43° E 01:04:03 10° NE
SL-19 R/B 4.4 00:54:54 10° NNE 00:59:17 62° NE 00:59:17 62° NE
Cosmos 1992 Rocket 4.5 01:03:14 59° NNE 01:03:14 59° NNE 01:07:27 10° NNE
Cosmos 2263 Rocket 2.5 00:57:02 10° NNW 01:02:40 62° NE 01:03:49 51° E
SL-08 R/B 4.4 00:57:24 10° NNW 01:03:48 87° WNW 01:03:48 87° WNW
Cosmos 2181 Rocket 3.9 01:05:10 78° NW 01:05:10 78° NW 01:11:10 10° N
Cosmos 1980 Rocket 3.4 01:05:33 31° ESE 01:05:53 31° ESE 01:10:47 10° NE
Cosmos 1656 3.8 01:12:56 72° NE 01:12:56 72° NE 01:17:56 10° NE
SL-08 R/B 4.1 01:18:48 46° E 01:19:12 47° ENE 01:23:38 10° N
Cosmos 1818 3.7 01:20:27 69° N 01:20:27 69° N 01:25:35 10° NE
Lacrosse 5 2.9 01:22:28 38° ESE 01:22:28 38° ESE 01:26:02 10° ENE
Helios 1B rocket 4.3 01:20:35 10° N 01:22:41 25° NNW 01:22:41 25° NNW
AQUA 4.2 01:20:12 10° NNE 01:24:25 60° ENE 01:24:25 60° ENE
Resurs 1-4 Rocket 2.1 01:21:57 10° NNE 01:26:56 79° N 01:26:56 79° N
SL-19 R/B 4.2 01:33:03 74° WNW 01:33:03 74° WNW 01:38:32 10° NNW
CZ-2D R/B 2.0 01:28:30 10° NNE 01:33:36 79° NNW 01:33:36 79° NNW
SL-16 R/B 3.2 01:35:42 39° WNW 01:35:42 39° WNW 01:40:17 10° NNW
Cosmos 2227 4.1 01:29:35 10° NW 01:35:02 82° WNW 01:35:02 82° WNW
NOSS 3-4 (A) 3.8 01:32:44 10° NW 01:39:26 80° NNE 01:46:56 10° ESE
NOSS 3-4 (C) 3.8 01:32:52 10° NW 01:39:33 79° NNE 01:47:02 10° ESE
Cosmos 1151 Rocket 3.5 01:41:11 58° NNE 01:41:11 58° NNE 01:44:46 10° NNE
Meteor 1-25 Rocket 4.3 01:34:57 10° NNW 01:40:19 66° WNW 01:40:19 66° WNW
Cosmos 1515 Rocket 4.2 01:45:17 52° E 01:45:20 52° E 01:49:39 10° NNE
Meteor 1-26 Rocket 4.4 01:45:38 52° SE 01:46:40 62° E 01:52:02 10° NNE
ARIANE 5 R/B 3.7 01:43:21 10° NNE 01:48:04 36° E 01:50:05 26° SE
Cosmos 1328 Rocket 3.8 01:51:12 69° NNE 01:51:12 69° NNE 01:55:07 10° NNE
Cosmos 1943 Rocket 4.4 01:47:43 10° NW 01:51:31 18° N 01:55:18 10° NE
Cosmos 1821 Rocket 3.9 01:46:27 10° NNW 01:52:39 63° W 01:53:03 61° WSW
NPP 3.5 01:49:30 10° NNE 01:54:54 70° WNW 01:55:12 68° W
Meteor 1-5 Rocket 4.5 01:50:16 10° N 01:55:34 62° ENE 02:00:06 15° SSE
Cosmos 1934 Rocket 3.8 01:50:35 10° NNW 01:56:40 88° W 01:58:47 44° S
Cosmos 1933 Rocket 4.2 01:53:48 10° NNW 01:56:56 46° NNW 01:56:56 46° NNW
ATLAS 5 CENTAUR R/B 2.5 01:57:35 41° NW 01:58:18 44° NNW 02:03:21 10° ENE
IRS-1D 3.5 01:55:50 10° NNE 02:01:14 86° ESE 02:02:07 63° S
IRS-P3 4.5 01:56:29 10° NNE 02:01:48 60° ESE 02:03:30 41° SSE
ATLAS 2AS CENTAUR R/B 2.9 01:55:29 10° NW 02:03:15 85° NE 02:10:26 10° SE
Cosmos 1933 4.1 02:04:20 45° NNW 02:04:20 45° NNW 02:07:24 10° N
CBERS-1 3.9 01:59:16 10° NNE 02:04:26 86° ESE 02:05:13 65° S
Cosmos 1606 4.3 02:06:08 26° NNW 02:06:08 26° NNW 02:08:12 10° N
Cosmos 990 Rocket 3.9 02:01:40 10° NNW 02:06:54 90° NE 02:12:08 10° SSE
Cosmos 44 3.4 02:08:32 53° SE 02:08:50 55° SE 02:13:30 10° NE
Cosmos 2278 3.7 02:10:20 54° SSW 02:11:39 80° ESE 02:17:23 10° NE
OceanSat 1 rocket 4.4 02:07:39 10° NNE 02:12:28 82° WNW 02:12:55 72° SW
ADEOS II 2.0 02:11:53 10° NNE 02:17:11 81° WNW 02:18:19 56° SSW
SJ 16-02 2.7 02:14:03 10° NNW 02:16:14 28° NW 02:16:14 28° NW
Cosmos 1869 Rocket 3.6 02:14:03 10° N 02:18:27 78° ENE 02:19:44 45° SSE
IDEFIX/ARIANE 42P 3.3 02:13:59 10° NNE 02:19:09 51° E 02:22:24 22° SSE
Meteor 1-14 Rocket 4.2 02:14:01 10° NNW 02:19:33 59° W 02:20:22 53° SW
Cosmos 2369 3.7 02:20:39 52° WSW 02:22:00 70° NW 02:27:46 10° NNE
Landsat 5 4.4 02:17:52 10° SE 02:22:14 53° ENE 02:26:31 10° N
SL-4 R/B 4.1 02:21:54 18° SSE 02:22:30 19° SE 02:25:47 10° E
CZ-4C R/B 3.1 02:16:35 10° NW 02:23:04 64° NNE 02:30:50 10° ESE
USA 234 3.2 02:20:07 10° SE 02:26:37 65° SSW 02:30:48 24° WNW
Cosmos 389 Rocket 2.7 02:28:18 65° N 02:28:18 65° N 02:31:29 10° NNE
Nadezhda 3 Rocket 4.0 02:27:57 44° SW 02:29:38 58° WNW 02:35:45 10° N
Cosmos 1238 Rocket 4.0 02:24:27 10° NNW 02:30:55 59° W 02:33:17 37° SSW
Cosmos 1605 Rocket 3.9 02:24:49 10° NNW 02:31:15 78° W 02:37:19 12° S
CZ-4B R/B 3.6 02:28:18 10° NNE 02:33:21 62° WNW 02:34:35 47° WSW
COSMOS 2455 4.1 02:27:41 10° NW 02:33:24 40° NNE 02:39:04 10° E
Cosmos 972 4.3 02:32:56 47° SSW 02:34:21 89° ESE 02:39:19 10° NNE
Cosmos 2228 Rocket 3.1 02:33:13 43° S 02:34:37 79° E 02:39:04 10° NNE
Cosmos 1782 2.9 02:36:38 57° WNW 02:36:38 57° WNW 02:40:35 10° N
Iridium 2 3.5 02:36:41 74° WNW 02:36:41 74° WNW 02:40:26 10° N
USA 305 2.9 02:36:27 58° SSW 02:36:45 60° S 02:40:57 10° E
Cosmos 2369 Rocket 4.5 02:35:49 10° NW 02:39:44 19° N 02:43:40 10° NE
Cosmos 2360 Rocket 4.2 02:35:21 10° SSE 02:39:48 24° ESE 02:44:16 10° NE
H-2A R/B 2.3 02:35:32 10° SSE 02:39:58 73° ENE 02:44:30 10° NNW
USA 306 2.9 02:40:43 57° SSW 02:41:10 61° S 02:45:22 10° E
CZ-2C R/B 4.2 02:37:42 10° NNE 02:42:18 31° E 02:46:55 10° SSE
Celestis-02/Orion 38 4.5 02:37:23 10° SSE 02:42:33 65° WSW 02:47:40 10° NW
Cosmos 1697 Rocket 3.1 02:40:57 37° W 02:42:43 50° NW 02:48:13 10° NNE
Cosmos 372 Rocket 4.3 02:38:41 10° NNW 02:43:52 68° ENE 02:48:58 10° SE
ATLAS CENTAUR R/B 3.4 02:30:44 10° WNW 02:44:35 86° SSW 02:49:32 10° ESE
Cosmos 2263 Rocket 2.9 02:41:19 10° NW 02:45:20 32° W 02:45:20 32° W
Meteor 1-4 Rocket 3.0 02:46:55 33° SSE 02:48:14 57° E 02:51:46 10° NNE
ASTEX 1 3.4 02:44:09 10° N 02:49:09 69° W 02:51:25 32° SSW
Cosmos 1980 Rocket 2.2 02:47:19 38° WSW 02:49:32 69° NW 02:55:12 10° NNE
Cosmos 1844 Rocket 2.7 02:45:14 10° NW 02:50:55 83° NE 02:56:36 10° SE
Cosmos 1500 4.0 02:48:18 10° NNW 02:51:02 35° WNW 02:51:02 35° WNW
Cosmos 1898 Rocket 3.7 02:49:49 10° NW 02:54:52 48° WSW 02:59:55 10° S
Cosmos 2278 Rocket 3.8 02:49:58 10° NNW 02:55:10 35° NE 03:00:20 10° ESE
Cosmos 1666 2.5 02:53:15 10° NNW 02:57:05 72° W 02:59:07 26° S
SL-08 R/B 4.1 02:57:48 30° W 02:57:48 30° W 03:01:20 10° NNW
Spot 4 Rocket 4.0 02:52:05 10° NNE 02:57:17 84° ESE 03:01:00 19° SSW
Helios 1B 4.5 02:54:47 12° S 02:58:41 65° WSW 03:03:02 10° NNW
Meteor 1-11 Rocket 3.6 02:53:11 10° NNW 02:58:58 73° W 03:04:36 10° S
Cosmos 2322 Rocket 2.9 02:54:20 14° S 02:59:01 51° ESE 03:04:33 10° NE
Cosmos 1844 3.7 02:53:51 10° NW 02:59:29 81° NE 03:05:03 10° SE
Cosmos 858 Rocket 4.5 02:56:29 10° NW 03:01:34 55° WSW 03:06:37 10° S
IRS-1C 4.2 02:57:22 10° NNE 03:02:38 58° WNW 03:05:14 29° SW
Lacrosse 5 1.8 03:01:39 33° W 03:03:57 88° N 03:09:04 10° E
Resurs 1-4 Rocket 3.5 03:02:29 10° N 03:06:31 23° NW 03:08:01 20° WNW
Cosmos 921 Rocket 2.9 03:05:07 37° SW 03:06:37 67° WNW 03:10:51 10° NNE
Cosmos 2298 Rocket 4.3 03:02:46 10° NNW 03:08:07 74° ENE 03:13:26 10° SE
IRIDIUM 104 4.3 03:04:16 10° N 03:09:27 65° W 03:14:36 10° S
Cosmos 1812 2.6 03:08:14 35° SSW 03:09:42 66° WNW 03:13:34 10° N
USA 307 2.9 03:08:53 37° WSW 03:10:26 65° S 03:14:40 10° E
SL-16 R/B 2.4 03:06:40 17° SSW 03:11:00 70° ESE 03:16:41 10° NE
Cosmos 2100 Rocket 4.0 03:04:52 10° NNW 03:11:19 89° WSW 03:17:41 10° S
Meteor 1-27 Rocket 4.1 03:06:50 10° S 03:12:42 71° E 03:18:34 10° NNE
CZ-2D R/B 3.6 03:09:19 10° N 03:13:14 21° NW 03:14:55 18° WNW
ERBS 2.6 03:12:22 39° SSW 03:13:15 53° SSE 03:16:33 10° ENE
USA 308 2.9 03:12:07 34° WSW 03:13:48 65° S 03:18:02 10° E
Cosmos 1937 Rocket 3.7 03:09:28 10° NW 03:14:22 44° WSW 03:19:14 10° S
Cosmos 1459 Rocket 3.9 03:09:22 10° NNW 03:15:31 90° WSW 03:21:35 10° S
Cosmos 1727 Rocket 4.0 03:10:31 10° S 03:16:52 89° WNW 03:23:13 10° NNE
IRIDIUM 114 4.4 03:13:28 10° NNW 03:18:34 55° W 03:23:39 10° SSW
Cosmos 1802 Rocket 4.0 03:15:19 10° N 03:21:33 85° ENE 03:27:50 10° SSE
CZ-4C R/B 3.3 03:20:02 24° SSW 03:21:48 42° W 03:25:10 10° NNW
Cosmos 1536 2.9 03:18:03 10° NNW 03:22:04 57° W 03:26:04 10° S
Cosmos 841 Rocket 4.2 03:19:40 10° S 03:24:45 55° ESE 03:29:55 10° NE
CZ-2D R/B 3.7 03:20:45 10° N 03:24:52 52° WNW 03:27:24 22° SW
USA 32 4.0 03:21:52 10° NNW 03:27:03 61° W 03:32:13 10° S
ARIANE 5 R/B 2.8 03:22:27 10° N 03:27:20 46° WNW 03:30:25 21° SW
Cosmos 1125 Rocket 3.9 03:22:13 10° NNW 03:27:32 69° ENE 03:32:47 10° SE
Cosmos 1763 Rocket 3.5 03:25:16 15° SSW 03:29:43 86° WNW 03:35:03 10° NNE
NOSS 3-4 (A) 4.2 03:23:47 10° WNW 03:30:09 41° SW 03:37:08 10° S
NOSS 3-4 (C) 4.1 03:23:53 10° WNW 03:30:15 42° SW 03:37:16 10° S
USA 267 3.7 03:24:56 10° ENE 03:31:23 58° SSE 03:36:58 14° SW
Cosmos 2150 Rocket 4.0 03:30:14 10° NNW 03:35:45 81° WSW 03:41:10 10° SSE
Cosmos 1707 Rocket 3.5 03:32:27 10° SSW 03:36:44 70° WNW 03:41:08 10° N
Cosmos 1943 Rocket 4.3 03:32:59 10° NNW 03:37:18 22° NNE 03:41:37 10° ENE
ADEOS Rocket 2.9 03:33:49 10° S 03:40:13 70° WSW 03:46:03 10° NNW
MSX 3.9 03:36:30 10° NNE 03:42:14 64° WNW 03:47:55 10° SW
CZ-4B R/B 1.2 03:39:31 10° SSE 03:42:46 81° WSW 03:46:07 10° NNW
NOSS 3-3 (A) 4.1 03:38:58 18° WSW 03:43:50 79° NNW 03:50:59 10° NE
ATLAS 5 CENTAUR R/B 3.1 03:39:18 10° WNW 03:43:54 39° N 03:49:14 10° ENE
NOSS 3-3 (C) 4.1 03:39:06 18° WSW 03:43:57 79° NNW 03:51:04 10° NE
ERS-2 2.4 03:40:34 10° S 03:44:06 45° W 03:47:40 10° NNW
Cosmos 1733 Rocket 3.2 03:41:02 10° NNW 03:45:14 48° W 03:49:23 10° SSW
Cosmos 540 Rocket 3.7 03:40:11 10° SSW 03:45:21 75° ESE 03:50:33 10° NNE
Cosmos 1544 3.0 03:43:05 10° NNW 03:46:42 86° ENE 03:50:18 10° SSE
Cosmos 1743 2.6 03:44:12 10° NNW 03:48:00 67° W 03:51:47 10° S
Cosmos 44 Rocket 3.8 03:45:09 10° SSW 03:49:49 57° SE 03:54:39 10° NE
PAYLOAD A 3.7 03:45:13 10° NNE 03:49:57 81° WNW 03:54:40 10° SSW
Cosmos 44 3.8 03:46:58 18° W 03:50:13 46° NNW 03:54:56 10° NE
RESURS DK-1 3.2 03:47:56 10° NNW 03:52:03 53° NE 03:56:08 10° SE
Cosmos 2173 Rocket 4.1 03:47:03 10° NNW 03:53:12 55° W 03:59:22 10° SSW
ADEOS 4.2 03:48:22 10° NNE 03:53:33 60° ESE 03:58:43 10° S
ATLAS 2AS CENTAUR R/B 3.3 03:46:55 10° NW 03:53:41 37° WSW 03:59:58 10° S
CZ-2C R/B 3.3 03:52:08 10° N 03:55:41 38° WNW 03:58:54 12° SW
ADEOS II 3.5 03:52:23 10° N 03:56:12 21° NW 03:59:15 13° W
IDEFIX/ARIANE 42P 3.3 03:53:50 10° N 03:58:38 36° WNW 04:03:12 11° WSW
Cosmos 2333 Rocket 3.8 03:53:55 10° S 03:59:10 38° ESE 04:04:26 10° NE
PSLV R/B 3.4 03:55:06 10° NNE 03:59:18 69° WNW 04:03:28 10° SSW
SL-4 R/B 3.2 03:57:30 12° SW 04:01:24 40° SSE 04:05:54 10° E
SKYMED 2 4.0 03:57:26 10° SSE 04:01:46 69° ENE 04:06:06 10° NNW
Cosmos 2242 Rocket 4.2 03:57:46 10° S 04:02:05 60° E 04:06:29 10° NNE
Cosmos 2285 Rocket 4.1 03:56:00 10° NNW 04:02:28 90° WSW 04:08:55 10° SSE
USA 276 4.3 04:03:18 11° SW 04:04:05 12° SSW 04:05:28 10° S
BREEZE-M DEB (TANK) 4.4 04:00:12 10° SW 04:04:22 19° S 04:06:42 10° SE
Cosmos 468 Rocket 4.3 03:59:52 11° SW 04:04:46 49° NW 04:09:53 10° NNE
Cosmos 1570 Rocket 4.1 04:00:17 10° SSW 04:05:39 84° WNW 04:11:04 10° NNE
Meteor 2-20 4.4 04:03:28 10° SSW 04:09:36 82° WNW 04:15:45 10° NNE
USA 234 4.1 04:04:57 10° SSE 04:10:30 29° SW 04:16:03 10° WNW
Cosmos 1862 Rocket 3.5 04:07:17 10° SSW 04:11:36 63° WNW 04:15:57 10° N
CZ-4C R/B 3.0 04:05:05 10° NW 04:11:53 61° SW 04:19:49 10° SSE
ALOS 2.7 04:08:25 10° NNE 04:13:07 69° ESE 04:17:46 10° S
Exosat Rocket 4.4 04:07:33 10° NW 04:13:35 66° WSW 04:22:06 10° SSE
FENGYUN 3A 4.0 04:09:57 10° NNE 04:15:23 72° ESE 04:20:48 10° S
H-2A R/B 3.4 04:13:10 10° SW 04:16:26 20° W 04:19:47 10° NW
USA 305 3.1 04:12:37 11° W 04:16:34 58° SSW 04:20:45 10° ESE
SAR-Lupe-4 3.9 04:13:39 10° S 04:17:06 42° W 04:20:34 10° NNW
Cosmos 1689 Rocket 2.0 04:15:59 10° S 04:18:57 67° WSW 04:21:57 10° NNW
PSLV R/B 3.9 04:15:13 10° SSE 04:19:18 82° WSW 04:23:27 10° NNW
COSMOS 2455 2.9 04:13:50 10° NW 04:19:55 84° SW 04:25:58 10° SE
CZ-2C R/B 2.7 04:15:46 10° N 04:20:48 56° WNW 04:25:52 10° SW
USA 306 3.1 04:16:52 10° W 04:20:59 57° SSW 04:25:10 10° ESE
Cosmos 1975 2.8 04:17:28 10° NNW 04:21:29 65° W 04:25:26 10° S
Cosmos 2360 Rocket 2.2 04:17:32 10° SW 04:23:14 83° NW 04:28:56 10° NE
Meteor 1-4 Rocket 4.2 04:21:08 10° WSW 04:23:37 18° WNW 04:26:10 10° NNW
Cosmos 2016 Rocket 4.2 04:19:10 10° NNW 04:24:59 47° W 04:30:45 10° SSW
Cosmos 2369 Rocket 4.1 04:20:54 10° NNW 04:25:43 27° NNE 04:30:32 10° E
Cosmos 1697 Rocket 4.3 04:23:39 10° WNW 04:28:00 22° NNW 04:32:22 10° NNE
Sich 1 Rocket 3.9 04:24:26 10° N 04:29:04 77° ENE 04:33:38 10° SSE
Meteor 1-19 Rocket 4.4 04:24:24 10° S 04:29:57 81° ESE 04:35:43 10° NNE
Cosmos 1484 Rocket 2.8 04:26:27 10° NNE 04:30:29 79° WNW 04:34:28 10° SSW
Meteor 1-18 Rocket 4.3 04:25:07 10° S 04:30:42 87° E 04:36:22 10° NNE
Cosmos 2061 Rocket 4.4 04:25:41 10° NNW 04:31:45 45° W 04:37:47 10° SSW
Cosmos 1844 Rocket 3.7 04:29:47 10° NW 04:34:14 24° WSW 04:38:41 10° SSW
Cosmos 1980 Rocket 3.5 04:29:49 10° W 04:34:33 26° NNW 04:39:16 10° NNE
Cosmos 2233 Rocket 4.0 04:28:42 10° NNW 04:34:48 67° W 04:40:52 10° S
